[[{"header":{"parameterUnit":"m.s-1","parameterCategory":1,"la1":30.2991,"la2":30.254,"lo1":-89.0895,"lo2":-89.0444,"dy":0.0017,"dx":0.0017,"nx":28,"ny":28,"refTime":"2024-08-29T09:00:00:Z","depth":0,"parameterNumber":2,"parameterNumberName":"U-component_of_WINDS"},"data":[0,0,0,0,0,0,0,0,0,0,0,0,0,0,0,0,0,0,0,0,0,0,0,0,0,0,0,0,0,0,0,0,0,0,0,0,0,0,0,0,0,0,0,0,0,0,0,0,0,0,0,0,0,0,0,0,0,0,-4.1722,-4.1723,0,-4.1874,-4.1875,-4.1877,-4.1824,-4.1821,-4.1818,-4.1815,-4.1974,-4.1981,-4.1988,0,0,0,0,0,0,0,0,0,0,0,0,0,-4.1389,-4.1395,-4.1721,-4.1723,-4.1725,-4.1873,-4.1875,-4.1877,-4.1825,-4.1821,-4.1817,-4.1813,-4.1971,-4.198,-4.1989,0,0,0,0,0,0,0,0,0,0,0,0,0,-4.1537,-4.1397,-4.1721,-4.1717,-4.1718,-4.1873,-4.1875,-4.1878,-4.1826,-4.1821,-4.1816,-4.1811,-4.1968,-4.1979,-4.199,-4.2159,0,0,-4.2024,-4.2029,0,0,0,0,0,0,0,0,-4.1528,-4.1549,-4.1716,-4.1717,-4.1719,-4.1825,-4.1816,-4.1972,-4.1827,-4.1785,-4.1814,-4.1809,-4.1928,-4.1942,-4.1982,-4.2167,-4.2173,-4.2025,-4.2031,-4.2036,-4.2039,0,0,0,0,0,0,0,-4.1518,-4.1542,-4.1782,-4.1718,-4.172,-4.1708,-4.1724,-4.1846,-4.1883,-4.1788,-4.1785,-4.1803,-4.1928,-4.1972,-4.1985,-4.2176,-4.2024,-4.2034,-4.2041,-4.2045,-4.2506,-4.2511,0,0,0,0,0,0,-4.1506,-4.1534,-4.1777,-4.1786,-4.1609,-4.1718,-4.1736,-4.1796,-4.1882,-4.189,-4.1808,-4.18,-4.1955,-4.1973,-4.1991,-4.2193,-4.2036,-4.2046,-4.2053,-4.25,-4.2507,-4.2513,0,0,0,0,0,0,-4.15,-4.1529,-4.1771,-4.1659,-4.1689,-4.173,-4.1798,-4.1802,-4.1845,-4.1896,-4.1903,-4.1844,-4.1952,-4.1975,-4.2117,-4.2198,-4.2051,-4.2061,-4.2493,-4.2502,-4.251,-4.26,0,0,0,0,0,0,-4.149,-4.1526,-4.159,-4.1661,-4.1695,-4.1894,-4.1803,-4.1808,-4.1863,-4.1855,-4.1933,-4.1941,-4.195,-4.2101,-4.2128,-4.221,-4.207,-4.2486,-4.2497,-4.2507,-4.259,-4.261,-4.2628,0,0,0,0,0,-4.1479,-4.1611,-4.1594,-4.1624,-4.1776,-4.1898,-4.1918,-4.1925,-4.187,-4.1935,-4.1968,-4.1938,-4.2185,-4.2116,-4.2146,-4.2233,-4.2481,-4.2494,-4.2506,-4.2581,-4.2606,-4.2627,0,0,0,0,0,0,-4.155,-4.162,-4.1602,-4.1761,-4.1824,-4.1889,-4.1971,-4.1951,-4.2032,-4.2022,-4.2028,-4.2046,-4.2191,-4.2227,-4.2148,-4.2401,-4.2325,-4.2344,-4.2372,-4.2396,-4.2414,-4.2402,-4.2079,0,0,0,0,0,-4.1584,-4.1677,-4.1733,-4.1868,-4.1901,-4.1931,-4.1985,-4.1984,-4.205,-4.2077,-4.2121,-4.2187,-4.2279,-4.234,-4.2428,-4.2595,-4.2611,-4.267,-4.2689,-4.2704,-4.272,-4.2811,-4.2837,-4.2554,-4.2554,-4.2554,0,0,-4.1656,-4.1705,-4.1764,-4.1884,-4.1932,-4.2029,-4.1954,-4.2059,-4.2131,-4.2094,-4.2229,-4.2264,-4.2338,-4.2493,-4.2564,-4.2527,-4.2802,-4.2721,-4.2732,-4.274,-4.2826,-4.2853,-4.2877,-4.2563,-4.2561,-4.256,0,0,-4.1834,-4.1882,-4.1998,-4.2049,-4.2123,-4.2142,-4.2171,-4.2239,-4.226,-4.2396,-4.237,-4.2456,-4.2616,-4.2669,-4.2717,-4.2917,-4.2892,-4.2946,-4.3044,-4.3132,-4.3154,-4.3174,-4.3244,-4.3269,-4.2962,-4.2963,-4.2963,0,-4.1914,-4.2057,-4.2061,-4.2168,-4.2222,-4.2192,-4.231,-4.2359,-4.2459,-4.2497,-4.2455,-4.2653,-4.2702,-4.2868,-4.2916,-4.2957,-4.2989,-4.2936,-4.3151,-4.3171,-4.3189,-4.3256,-4.3282,-4.2968,-4.2968,-4.2967,-4.2967,0,-4.215,-4.225,-4.2336,-4.2431,-4.2495,-4.2607,-4.2629,-4.2693,-4.2688,-4.2711,-4.2851,-4.2907,-4.3006,-4.3046,-4.3042,-4.3212,-4.3187,-4.3148,-4.3072,-4.3222,-4.3284,-4.331,-4.2977,-4.2975,-4.2973,-4.2971,0,0,-4.2377,-4.2473,-4.2504,-4.2547,-4.2627,-4.2705,-4.2816,-4.2911,-4.2965,-4.3036,-4.3129,-4.3265,-4.3229,-4.3284,-4.3286,-4.3364,-4.3516,-4.3315,-4.3317,-4.3349,-4.3706,-4.3733,-4.3762,-4.3501,-4.3506,-4.351,-4.3699,0,-4.2561,-4.2754,-4.2761,-4.2939,-4.303,-4.3003,-4.31,-4.3161,-4.3187,-4.3269,-4.3298,-4.3393,-4.334,-4.3372,-4.3448,-4.3482,-4.3588,-4.3469,-4.3588,-4.3592,-4.3567,-4.3795,-4.3824,-4.3999,-4.3723,-4.3727,-4.3731,0,-4.2801,-4.2877,-4.3063,-4.3128,-4.3167,-4.3254,-4.3341,-4.3421,-4.3489,-4.3502,-4.3563,-4.3555,-4.3669,-4.3591,-4.3749,-4.3667,-4.3717,-4.3741,-4.3748,-4.3758,-4.3669,-4.3809,-4.4055,-4.4081,-4.3769,-4.3766,-4.3764,0,-4.2945,-4.3095,-4.3224,-4.3262,-4.3343,-4.3404,-4.3441,-4.3504,-4.356,-4.3638,-4.3674,-4.3764,-4.3813,-4.3884,-4.39,-4.3841,-4.4058,-4.3981,-4.4071,-4.4071,-4.4116,-4.4113,-4.4372,-4.4152,-4.4152,-4.4151,-4.4151,0,-4.3148,-4.3262,-4.329,-4.3369,-4.3497,-4.3505,-4.3631,-4.3664,-4.372,-4.3806,-4.379,-4.3871,-4.3889,-4.3974,-4.3988,-4.4116,-4.4139,-4.4153,-4.4155,-4.4153,-4.4151,-4.4184,-4.4171,-4.4158,-4.4157,-4.4155,-4.4154,0,-4.333,-4.3353,-4.3492,-4.3557,-4.3576,-4.3667,-4.3723,-4.38,-4.3824,-4.3933,-4.3959,-4.3998,-4.4097,-4.4121,-4.424,-4.4249,-4.44,-4.4392,-4.4376,-4.4375,-4.4464,-4.4454,-4.4752,-4.479,-4.4547,-4.4549,-4.4551,0,-4.3457,-4.3543,-4.3617,-4.3673,-4.3712,-4.3803,-4.3859,-4.3872,-4.3932,-4.4016,-4.4083,-4.418,-4.4258,-4.4419,-4.4458,-4.4549,-4.4541,-4.4639,-4.4555,-4.455,-4.4541,-4.4534,-4.4542,-4.4655,-4.4657,-4.4659,-4.4661,0,-4.3679,-4.3686,-4.3767,-4.3854,-4.3922,-4.3991,-4.4057,-4.4104,-4.4125,-4.4194,-4.4294,-4.4355,-4.4476,-4.4573,-4.4665,-4.4704,-4.4686,-4.4688,-4.4713,-4.4711,-4.4698,-4.4704,-4.4418,-4.468,-4.4678,-4.4677,-4.4676,-4.4675,-4.3836,-4.3911,-4.3974,-4.4066,-4.4116,-4.4178,-4.4253,-4.4286,-4.437,-4.4468,-4.4471,-4.458,-4.4647,-4.4767,-4.4812,-4.4898,-4.4868,-4.4906,-4.4915,-4.4923,-4.493,-4.4686,-4.4916,-4.4915,-4.4915,-4.4914,-4.4914,0,-4.4055,-4.4094,-4.4179,-4.427,-4.4343,-4.4319,-4.4391,-4.4453,-4.4549,-4.4612,-4.4689,-4.4805,-4.4899,-4.4945,-4.5039,-4.5099,-4.5093,-4.5123,-4.5118,-4.5127,-4.4953,-4.492,-4.5126,-4.5126,-4.5126,-4.5126,-4.5126,-4.5126,-4.4177,-4.4303,-4.4318,-4.4469,-4.4508,-4.4613,-4.4656,-4.4713,-4.4763,-4.4892,-4.497,-4.4999,-4.5056,-4.5153,-4.5238,-4.5249,-4.5284,-4.5317,-4.5325,-4.5161,-4.5139,-4.5118,-4.5088,-4.5325,-4.5325,-4.5491,-4.5492,-4.5494]},{"header":{"parameterUnit":"m.s-1","parameterCategory":1,"la1":30.2991,"la2":30.254,"lo1":-89.0895,"lo2":-89.0444,"dy":0.0017,"dx":0.0017,"nx":28,"ny":28,"refTime":"2024-08-29T09:00:00:Z","depth":0,"parameterNumber":3,"parameterNumberName":"V-component_of_WINDS"},"data":[0,0,0,0,0,0,0,0,0,0,0,0,0,0,0,0,0,0,0,0,0,0,0,0,0,0,0,0,0,0,0,0,0,0,0,0,0,0,0,0,0,0,0,0,0,0,0,0,0,0,0,0,0,0,0,0,0,0,-0.5945,-0.5945,0,-0.6004,-0.6005,-0.6006,-0.6029,-0.6028,-0.6028,-0.6028,-0.6094,-0.6095,-0.6097,0,0,0,0,0,0,0,0,0,0,0,0,0,-0.5855,-0.5856,-0.5945,-0.5946,-0.5946,-0.6004,-0.6005,-0.6006,-0.6029,-0.6028,-0.6028,-0.6028,-0.6093,-0.6095,-0.6097,0,0,0,0,0,0,0,0,0,0,0,0,0,-0.5902,-0.5857,-0.5945,-0.5964,-0.5967,-0.6004,-0.6005,-0.6006,-0.6029,-0.6028,-0.6028,-0.6028,-0.6092,-0.6095,-0.6098,-0.6121,0,0,-0.6107,-0.6108,0,0,0,0,0,0,0,0,-0.59,-0.5906,-0.5961,-0.5963,-0.5966,-0.6009,-0.5997,-0.6045,-0.6029,-0.6005,-0.6028,-0.6028,-0.6066,-0.6071,-0.6083,-0.6124,-0.6127,-0.6107,-0.6109,-0.611,-0.6111,0,0,0,0,0,0,0,-0.5896,-0.5903,-0.5969,-0.5962,-0.5965,-0.5972,-0.5978,-0.6006,-0.6037,-0.6007,-0.6009,-0.6016,-0.6067,-0.608,-0.6084,-0.6128,-0.6107,-0.6109,-0.6111,-0.6112,-0.6192,-0.6192,0,0,0,0,0,0,-0.5889,-0.59,-0.5967,-0.597,-0.5931,-0.5974,-0.5981,-0.5995,-0.6036,-0.6042,-0.6016,-0.6016,-0.6075,-0.6081,-0.6087,-0.6117,-0.611,-0.6112,-0.6114,-0.6191,-0.6192,-0.6192,0,0,0,0,0,0,-0.5887,-0.5895,-0.5964,-0.5936,-0.5945,-0.5975,-0.5992,-0.5997,-0.6009,-0.6043,-0.6049,-0.6023,-0.6075,-0.6083,-0.6112,-0.612,-0.6114,-0.6116,-0.6191,-0.6192,-0.6192,-0.6178,0,0,0,0,0,0,-0.5884,-0.5894,-0.5902,-0.5936,-0.5946,-0.5987,-0.5992,-0.5998,-0.6014,-0.6015,-0.6051,-0.6057,-0.6076,-0.6108,-0.6115,-0.6124,-0.6119,-0.619,-0.6191,-0.6192,-0.6178,-0.6178,-0.6178,0,0,0,0,0,-0.5881,-0.5897,-0.5902,-0.591,-0.5957,-0.5988,-0.5994,-0.6014,-0.6014,-0.6023,-0.6045,-0.6056,-0.6117,-0.611,-0.6119,-0.6129,-0.619,-0.6191,-0.6192,-0.6178,-0.6178,-0.6178,0,0,0,0,0,0,-0.5865,-0.5901,-0.5908,-0.5935,-0.5958,-0.5991,-0.6003,-0.6013,-0.6038,-0.6039,-0.6064,-0.6072,-0.6099,-0.6117,-0.6108,-0.6153,-0.6155,-0.6157,-0.6141,-0.6141,-0.6141,-0.6137,-0.6121,0,0,0,0,0,-0.5864,-0.5884,-0.5916,-0.5936,-0.5947,-0.5973,-0.5987,-0.6,-0.6026,-0.6036,-0.606,-0.6085,-0.6111,-0.6127,-0.6152,-0.618,-0.6189,-0.6191,-0.6191,-0.6191,-0.6193,-0.621,-0.6211,-0.6195,-0.6195,-0.6195,0,0,-0.5863,-0.5885,-0.5897,-0.5933,-0.5953,-0.5974,-0.5981,-0.6004,-0.6021,-0.604,-0.6069,-0.6087,-0.6117,-0.6146,-0.616,-0.6162,-0.6199,-0.6192,-0.6191,-0.6194,-0.6211,-0.6212,-0.6214,-0.6196,-0.6196,-0.6196,0,0,-0.5872,-0.5891,-0.591,-0.5929,-0.5958,-0.5975,-0.5979,-0.6011,-0.6024,-0.6053,-0.6068,-0.6089,-0.6131,-0.6152,-0.6169,-0.6186,-0.6197,-0.6193,-0.6194,-0.621,-0.6211,-0.6213,-0.6219,-0.6221,-0.6195,-0.6195,-0.6195,0,-0.5868,-0.59,-0.5919,-0.5941,-0.5957,-0.5973,-0.5994,-0.6012,-0.6048,-0.6059,-0.606,-0.6114,-0.6135,-0.6169,-0.6173,-0.6186,-0.6193,-0.619,-0.6209,-0.6211,-0.6212,-0.6219,-0.6222,-0.6194,-0.6195,-0.6195,-0.6195,0,-0.5894,-0.5916,-0.5928,-0.596,-0.5978,-0.5999,-0.6022,-0.6038,-0.6049,-0.6067,-0.6097,-0.6123,-0.6153,-0.6162,-0.6175,-0.6199,-0.6199,-0.6204,-0.6206,-0.6213,-0.622,-0.6223,-0.6194,-0.6194,-0.6194,-0.6194,0,0,-0.5896,-0.5938,-0.5942,-0.5957,-0.5989,-0.6008,-0.603,-0.6058,-0.6071,-0.6095,-0.6115,-0.6151,-0.6156,-0.6174,-0.6189,-0.6203,-0.6216,-0.6207,-0.6208,-0.6208,-0.6245,-0.6241,-0.6244,-0.6223,-0.6223,-0.6224,-0.6242,0,-0.591,-0.5949,-0.5966,-0.5998,-0.6019,-0.6035,-0.6054,-0.6077,-0.6094,-0.6115,-0.6134,-0.6159,-0.6163,-0.6175,-0.6189,-0.6211,-0.6223,-0.621,-0.6243,-0.6244,-0.6236,-0.6247,-0.6244,-0.626,-0.6245,-0.6246,-0.6246,0,-0.5932,-0.5955,-0.5988,-0.6018,-0.6027,-0.6044,-0.6072,-0.6091,-0.6118,-0.6129,-0.6149,-0.6163,-0.6189,-0.6188,-0.6224,-0.6214,-0.6229,-0.6241,-0.6242,-0.6247,-0.6246,-0.6253,-0.6266,-0.6268,-0.625,-0.625,-0.625,0,-0.5931,-0.597,-0.5995,-0.6007,-0.6042,-0.6054,-0.6069,-0.6095,-0.6111,-0.6136,-0.6147,-0.6175,-0.619,-0.6212,-0.6234,-0.6231,-0.6268,-0.6269,-0.6279,-0.6279,-0.6287,-0.6287,-0.6303,-0.6295,-0.6295,-0.6295,-0.6295,0,-0.5946,-0.5966,-0.5994,-0.601,-0.6033,-0.6053,-0.6076,-0.6093,-0.6116,-0.6136,-0.6152,-0.617,-0.6197,-0.622,-0.6237,-0.6264,-0.6271,-0.6282,-0.6287,-0.6281,-0.628,-0.6292,-0.6292,-0.6295,-0.6295,-0.6295,-0.6295,0,-0.5949,-0.5969,-0.5997,-0.6028,-0.6036,-0.6052,-0.6079,-0.6095,-0.6112,-0.6137,-0.6144,-0.6172,-0.6199,-0.6222,-0.6259,-0.627,-0.6299,-0.6304,-0.629,-0.6292,-0.6302,-0.6301,-0.6328,-0.6333,-0.632,-0.632,-0.632,0,-0.5958,-0.5973,-0.6005,-0.6019,-0.6033,-0.6055,-0.6071,-0.6092,-0.6109,-0.614,-0.6153,-0.6181,-0.6204,-0.6247,-0.6272,-0.63,-0.6306,-0.6314,-0.6311,-0.6305,-0.6308,-0.6307,-0.6309,-0.6314,-0.6314,-0.6314,-0.6314,0,-0.5971,-0.598,-0.6002,-0.6027,-0.6045,-0.6066,-0.6088,-0.6099,-0.6124,-0.6142,-0.6169,-0.6187,-0.6223,-0.6252,-0.6282,-0.63,-0.6312,-0.6314,-0.6319,-0.6314,-0.6305,-0.6311,-0.6291,-0.6314,-0.6314,-0.6314,-0.6314,-0.6314,-0.5978,-0.5993,-0.6017,-0.6041,-0.6059,-0.6079,-0.6096,-0.6114,-0.6137,-0.6167,-0.6178,-0.6206,-0.6233,-0.6275,-0.6293,-0.6316,-0.6318,-0.6324,-0.6325,-0.6327,-0.6326,-0.63,-0.6322,-0.6322,-0.6322,-0.6322,-0.6322,0,-0.5993,-0.6009,-0.6031,-0.606,-0.6079,-0.6086,-0.6111,-0.6127,-0.6151,-0.6174,-0.6196,-0.6228,-0.6255,-0.6281,-0.631,-0.6324,-0.633,-0.6331,-0.6331,-0.6335,-0.6323,-0.6316,-0.6325,-0.6325,-0.6325,-0.6325,-0.6325,-0.6325,-0.6003,-0.6028,-0.604,-0.6075,-0.6091,-0.6117,-0.6131,-0.615,-0.6168,-0.6202,-0.6224,-0.624,-0.6265,-0.6296,-0.6322,-0.6329,-0.634,-0.6339,-0.6348,-0.6336,-0.6336,-0.6335,-0.6329,-0.6341,-0.6341,-0.6358,-0.6358,-0.6359]}]]